[Iaude] MPEC J246: 2024 JY8 [a=2.14,e=0.47,i=8.4,H=21.1]
    mpec at cfa.harvard.edu 
    mpec at cfa.harvard.edu
       
    Fri May 10 07:58:47 EDT 2024
    
    
  
M.P.E.C. 2024-J246                                 Issued 2024 May 10, 11:57 UT
     The Minor Planet Electronic Circulars contain information on unusual
         minor planets, routine data on comets and natural satellites,
         and occasional editorial announcements.  They are published
    on behalf of Division F of the International Astronomical Union by the
          Minor Planet Center, Smithsonian Astrophysical Observatory,
                          Cambridge, MA 02138, U.S.A.
			  
             Prepared using the Tamkin Foundation Computer Network
                              MPC at CFA.HARVARD.EDU
            URL https://www.minorplanetcenter.net/    ISSN 1523-6714
                                    2024 JY8                                    
Observations:
     K24J08Y* C2024 05 07.55980216 36 27.525-05 39 30.68         21.22wXEJ246F52
     K24J08Y  C2024 05 07.57093216 36 27.574-05 39 16.43         21.32wXEJ246F52
     K24J08Y  C2024 05 07.58206716 36 27.633-05 39 01.95         21.07wXEJ246F52
     K24J08Y  C2024 05 07.59319716 36 27.689-05 38 47.65         21.27wXEJ246F52
     K24J08Y KC2024 05 08.22090916 36 34.79 -05 25 21.0          22.1 GVEJ246H21
     K24J08Y KC2024 05 08.22650516 36 34.84 -05 25 13.1          21.0 GVEJ246H21
     K24J08Y KC2024 05 08.23228616 36 34.84 -05 25 05.9          21.0 GVEJ246H21
     K24J08Y KC2024 05 08.31028016 36 35.490-05 23 23.00         20.80GVEJ246I52
     K24J08Y KC2024 05 08.31509816 36 35.510-05 23 16.90         21.10GVEJ246I52
     K24J08Y KC2024 05 08.32012016 36 35.430-05 23 10.50               VEJ246I52
     K24J08Y KC2024 05 09.26513216 36 43.44 -05 02 30.4          21.1 GXEJ246858
     K24J08Y KC2024 05 09.27170416 36 43.47 -05 02 21.5          21.4 GXEJ246858
     K24J08Y KC2024 05 09.27795516 36 43.41 -05 02 13.3                XEJ246858
     K24J08Y KC2024 05 09.38651716 36 43.646-04 59 49.34         21.97GVEJ246I52
     K24J08Y KC2024 05 09.39734616 36 43.736-04 59 34.80         21.27GVEJ246I52
     K24J08Y KC2024 05 09.40753816 36 43.715-04 59 21.12               VEJ246I52
     K24J08Y 1C2024 05 10.00961 16 36 47.99 -04 46 02.4          21.8 VXEJ246033
     K24J08Y 1C2024 05 10.01213 16 36 47.99 -04 45 59.1          21.4 VXEJ246033
     K24J08Y 1C2024 05 10.01464 16 36 47.99 -04 45 55.7          21.6 VXEJ246033
     K24J08Y 1C2024 05 10.01716 16 36 47.99 -04 45 52.4          21.5 VXEJ246033
     K24J08Y 1C2024 05 10.01991 16 36 47.99 -04 45 49.0          21.8 VXEJ246033
     K24J08Y KC2024 05 10.38340416 36 49.890-04 37 37.60               VEJ246I52
     K24J08Y KC2024 05 10.38772816 36 49.910-04 37 30.90               VEJ246I52
     K24J08Y KC2024 05 10.39208416 36 49.910-04 37 25.40               VEJ246I52
Observer details:
033 Karl Schwarzschild Observatory, Tautenburg.  Observers S. Melnikov, C.
    Hogner, F. Ludwig, M. Hartmann, B. Stecklum.  Measurer B. Stecklum.
    1.34-m f/3 Schmidt + CCD.
858 Tebbutt Observatory, Edgewood.  Observer F. B. Zoltowski.  0.51-m f/8.1
    Schmidt-Cassegrain + CCD.
F52 Pan-STARRS 2, Haleakala.  Observers J. Herman, T. Lowe, P. Minguez, A.
    Schultz, I. Smith.  Measurers K. Chambers, T. de Boer, J. Fairlamb, H.
    Gao, M. Huber, C.-C. Lin, E. Magnier, Y. Ramanjooloo, R. Wainscoat, R.
    Weryk.  1.8-m Ritchey-Chretien + CCD.
H21 Astronomical Research Observatory, Westfield.  Observer R. Holmes.
    Measurers T. Linder, R. Holmes, L. Horn.  0.76-m f/3.0 astrograph + CCD.
I52 Steward Observatory, Mt. Lemmon Station.  Observer H. Groeller.  Measurers
    T. Beuden, V. F. Carvajal, D. Fay, J. B. Fazekas, D. C. Fuls, A. R. Gibbs,
    A. D. Grauer, H. Groeller, J. K. Hogan, R. A. Kowalski, S. M. Larson, G.
    J. Leonard, D. Rankin, R. L. Seaman, F. C. Shelly, K. W. Wierzchos.  1.0-m
    prime focus + CCD.
Orbital elements:
2024 JY8                                                 Earth MOID = 0.1839 AU
Epoch 2024 Mar. 31.0 TT = JDT 2460400.5                 Veres                   
M 318.17575              (2000.0)            P               Q                  
n   0.31398362     Peri.  119.43104     +0.65176404     +0.75787699             
a   2.1438681      Node   191.38229     -0.73649265     +0.62341694             
e   0.4658126      Incl.    8.37415     -0.18105857     +0.19228570             
P   3.14           H   21.10          G   0.15           U   9                  
Residuals in seconds of arc
240507 F52  0.1-  0.1+    240508 I52  0.2-  0.1-    240510 033  0.5+  0.4+
240507 F52  0.1-  0.0     240508 I52  1.7-  0.3-    240510 033  0.4+  0.3+
240507 F52  0.0   0.1+    240509 858  0.1+  0.0     240510 033  0.3+  0.4+
240507 F52  0.0   0.0     240509 858  0.3+  0.2+    240510 033  0.3+  0.3+
240508 H21  0.0   0.3-    240509 858  0.8-  0.2+    240510 033  0.2+  0.0
240508 H21  0.3+  0.3+    240509 I52  0.8-  0.1-    240510 I52  0.1-  0.6-
240508 H21  0.1-  0.0     240509 I52  0.3+  0.1+    240510 I52  0.2+  0.2+
240508 I52  0.3-  0.0     240509 I52  0.2-  0.2+    240510 I52  0.3+  0.1-
Ephemeris:
2024 JY8                 a,e,i = 2.14, 0.47, 8                   q = 1.1452
Date    TT    R. A. (2000) Decl.     Delta      r    Elong.  Phase     V
2024 04 10    16 20 55.5 -12 58 36   0.8212  1.6800   134.1    25.4    23.0
...
2024 04 25    16 31 56.7 -09 36 51   0.6538  1.5874   145.2    21.2    22.2
...
2024 05 03    16 35 22.0 -07 13 00   0.5779  1.5386   150.8    18.6    21.8
...
2024 05 09    16 36 40.9 -05 08 11   0.5275  1.5024   154.3    16.9    21.5
2024 05 10    16 36 47.8 -04 46 03   0.5197  1.4965   154.8    16.7    21.4
2024 05 11    16 36 53.0 -04 23 33   0.5120  1.4905   155.3    16.5    21.4
...
2024 05 17    16 36 48.9 -02 01 37   0.4692  1.4551   157.2    15.7    21.1
...
2024 05 25    16 35 21.1 +01 22 15   0.4208  1.4092   156.7    16.5    20.9
...
2024 06 09    16 30 06.8 +07 53 46   0.3544  1.3283   147.7    24.1    20.6
M. P. C. Staff               (C) Copyright 2024 MPC           M.P.E.C. 2024-J246
    
    
More information about the Iaude
mailing list